Time,TemperatureF,DewpointF,PressureIn,WindDirection,WindDirectionDegrees,WindSpeedMPH,WindSpeedGustMPH,Humidity,HourlyPrecipIn,Conditions,Clouds,dailyrainin,SoftwareType,DateUTC
2013-08-03 00:13:00,69.1,63.0,29.86,SW,225,9.9,-999.0,81,-99.99,,,0.00,Acu-Link.com,2013-08-03 04:13:00,
2013-08-03 00:28:00,69.4,63.3,29.87,SW,225,5.3,-999.0,81,-99.99,,,0.00,Acu-Link.com,2013-08-03 04:28:00,
2013-08-03 00:43:00,69.6,63.5,29.87,SSW,202,3.7,-999.0,81,-99.99,,,0.00,Acu-Link.com,2013-08-03 04:43:00,
2013-08-03 00:58:00,69.6,63.5,29.87,WSW,247,3.2,-999.0,81,-99.99,,,0.00,Acu-Link.com,2013-08-03 04:58:00,
2013-08-03 01:14:00,69.6,63.5,29.87,WSW,247,4.7,-999.0,81,-99.99,,,0.00,Acu-Link.com,2013-08-03 05:14:00,
2013-08-03 01:29:00,69.8,63.7,29.87,SW,225,2.7,-999.0,81,-99.99,,,0.00,Acu-Link.com,2013-08-03 05:29:00,
2013-08-03 01:44:00,70.0,63.9,29.87,SSW,202,4.7,-999.0,81,-99.99,,,0.00,Acu-Link.com,2013-08-03 05:44:00,
2013-08-03 01:59:00,69.8,63.7,29.87,West,270,4.2,-999.0,81,-99.99,,,0.00,Acu-Link.com,2013-08-03 05:59:00,
2013-08-03 02:14:00,69.4,63.7,29.87,SW,225,5.8,-999.0,82,-99.99,,,0.00,Acu-Link.com,2013-08-03 06:14:00,
2013-08-03 02:29:00,68.9,63.9,29.87,WSW,247,4.7,-999.0,84,-99.99,,,0.00,Acu-Link.com,2013-08-03 06:29:00,
2013-08-03 02:44:00,68.5,64.1,29.87,SW,225,3.2,-999.0,86,-99.99,,,0.00,Acu-Link.com,2013-08-03 06:44:00,
2013-08-03 02:59:00,67.6,63.9,29.88,West,270,6.3,-999.0,88,-99.99,,,0.00,Acu-Link.com,2013-08-03 06:59:00,
2013-08-03 03:14:00,66.6,64.5,29.88,West,270,7.3,-999.0,93,-99.99,,,0.01,Acu-Link.com,2013-08-03 07:14:00,
2013-08-03 03:30:00,65.7,63.9,29.88,SW,225,4.2,-999.0,94,-99.99,,,0.04,Acu-Link.com,2013-08-03 07:30:00,
2013-08-03 03:45:00,65.1,64.2,29.89,SSW,202,2.2,-999.0,97,-99.99,,,0.06,Acu-Link.com,2013-08-03 07:45:00,
2013-08-03 04:01:00,64.8,63.9,29.89,WSW,247,2.7,-999.0,97,-99.99,,,0.07,Acu-Link.com,2013-08-03 08:01:00,
2013-08-03 04:16:00,64.8,64.2,29.89,WSW,247,1.7,-999.0,98,-99.99,,,0.07,Acu-Link.com,2013-08-03 08:16:00,
2013-08-03 04:31:00,64.6,64.0,29.89,SW,225,2.2,-999.0,98,-99.99,,,0.07,Acu-Link.com,2013-08-03 08:31:00,
2013-08-03 04:46:00,64.6,64.0,29.88,SSW,202,3.7,-999.0,98,-99.99,,,0.08,Acu-Link.com,2013-08-03 08:46:00,
2013-08-03 05:16:00,64.4,64.1,29.88,SSW,202,2.2,-999.0,99,-99.99,,,0.09,Acu-Link.com,2013-08-03 09:16:00,
2013-08-03 05:31:00,64.4,64.1,29.88,SW,225,3.2,-999.0,99,-99.99,,,0.09,Acu-Link.com,2013-08-03 09:31:00,
2013-08-03 05:46:00,64.4,64.1,29.88,SW,225,3.2,-999.0,99,-99.99,,,0.09,Acu-Link.com,2013-08-03 09:46:00,
2013-08-03 06:02:00,64.4,64.1,29.88,SW,225,2.2,-999.0,99,-99.99,,,0.09,Acu-Link.com,2013-08-03 10:02:00,
2013-08-03 06:17:00,64.4,64.1,29.88,WSW,247,3.2,-999.0,99,-99.99,,,0.09,Acu-Link.com,2013-08-03 10:17:00,
2013-08-03 06:32:00,64.4,64.1,29.88,SW,225,2.2,-999.0,99,-99.99,,,0.10,Acu-Link.com,2013-08-03 10:32:00,
2013-08-03 06:47:00,64.2,63.9,29.88,West,270,3.2,-999.0,99,-99.99,,,0.10,Acu-Link.com,2013-08-03 10:47:00,
2013-08-03 07:03:00,64.2,63.9,29.88,WSW,247,2.7,-999.0,99,-99.99,,,0.10,Acu-Link.com,2013-08-03 11:03:00,
2013-08-03 07:18:00,64.4,64.1,29.88,West,270,3.2,-999.0,99,-99.99,,,0.11,Acu-Link.com,2013-08-03 11:18:00,
2013-08-03 07:33:00,64.4,64.1,29.89,WSW,247,3.2,-999.0,99,-99.99,,,0.11,Acu-Link.com,2013-08-03 11:33:00,
2013-08-03 07:48:00,64.6,64.3,29.89,WSW,247,2.7,-999.0,99,-99.99,,,0.12,Acu-Link.com,2013-08-03 11:48:00,
2013-08-03 08:04:00,65.1,64.8,29.89,WSW,247,3.7,-999.0,99,-99.99,,,0.12,Acu-Link.com,2013-08-03 12:04:00,
2013-08-03 08:19:00,65.3,65.0,29.89,SW,225,5.8,-999.0,99,-99.99,,,0.14,Acu-Link.com,2013-08-03 12:19:00,
2013-08-03 08:34:00,65.1,64.8,29.89,SW,225,3.7,-999.0,99,-99.99,,,0.14,Acu-Link.com,2013-08-03 12:34:00,
2013-08-03 08:49:00,65.1,64.8,29.88,SW,225,3.7,-999.0,99,-99.99,,,0.16,Acu-Link.com,2013-08-03 12:49:00,
2013-08-03 09:04:00,65.8,65.5,29.88,West,270,3.2,-999.0,99,-99.99,,,0.17,Acu-Link.com,2013-08-03 13:04:00,
2013-08-03 09:20:00,66.4,65.8,29.88,WSW,247,4.2,-999.0,98,-99.99,,,0.17,Acu-Link.com,2013-08-03 13:20:00,
2013-08-03 09:35:00,65.5,64.3,29.88,SSE,157,4.2,-999.0,96,-99.99,,,0.17,Acu-Link.com,2013-08-03 13:35:00,
2013-08-03 09:50:00,65.3,64.7,29.88,SW,225,2.2,-999.0,98,-99.99,,,0.17,Acu-Link.com,2013-08-03 13:50:00,
2013-08-03 10:06:00,65.3,64.7,29.88,SSW,202,2.7,-999.0,98,-99.99,,,0.17,Acu-Link.com,2013-08-03 14:06:00,
2013-08-03 11:07:00,67.1,65.3,29.88,West,270,5.8,-999.0,94,-99.99,,,0.17,Acu-Link.com,2013-08-03 15:07:00,
2013-08-03 11:22:00,67.1,65.3,29.88,SW,225,5.3,-999.0,94,-99.99,,,0.17,Acu-Link.com,2013-08-03 15:22:00,
2013-08-03 11:37:00,66.7,64.9,29.88,WSW,247,2.7,-999.0,94,-99.99,,,0.17,Acu-Link.com,2013-08-03 15:37:00,
2013-08-03 11:52:00,66.2,65.0,29.88,WSW,247,3.7,-999.0,96,-99.99,,,0.17,Acu-Link.com,2013-08-03 15:52:00,
2013-08-03 12:08:00,66.4,65.5,29.89,West,270,2.7,-999.0,97,-99.99,,,0.18,Acu-Link.com,2013-08-03 16:08:00,
2013-08-03 12:23:00,66.6,65.7,29.89,West,270,2.7,-999.0,97,-99.99,,,0.18,Acu-Link.com,2013-08-03 16:23:00,
2013-08-03 12:38:00,67.3,65.8,29.88,SW,225,3.7,-999.0,95,-99.99,,,0.18,Acu-Link.com,2013-08-03 16:38:00,
2013-08-03 12:54:00,67.6,66.1,29.89,South,180,2.7,-999.0,95,-99.99,,,0.18,Acu-Link.com,2013-08-03 16:54:00,
2013-08-03 13:09:00,66.4,64.9,29.89,SW,225,4.7,-999.0,95,-99.99,,,0.18,Acu-Link.com,2013-08-03 17:09:00,
2013-08-03 13:24:00,66.0,65.1,29.89,WSW,247,3.7,-999.0,97,-99.99,,,0.18,Acu-Link.com,2013-08-03 17:24:00,
2013-08-03 13:39:00,65.8,64.9,29.90,WSW,247,4.2,-999.0,97,-99.99,,,0.18,Acu-Link.com,2013-08-03 17:39:00,
2013-08-03 13:55:00,66.0,65.1,29.89,WSW,247,3.7,-999.0,97,-99.99,,,0.18,Acu-Link.com,2013-08-03 17:55:00,
2013-08-03 14:10:00,66.6,65.7,29.89,WSW,247,2.7,-999.0,97,-99.99,,,0.18,Acu-Link.com,2013-08-03 18:10:00,
2013-08-03 14:25:00,66.9,66.0,29.89,SSW,202,5.8,-999.0,97,-99.99,,,0.18,Acu-Link.com,2013-08-03 18:25:00,
2013-08-03 14:41:00,67.6,65.8,29.88,SSW,202,2.7,-999.0,94,-99.99,,,0.18,Acu-Link.com,2013-08-03 18:41:00,
2013-08-03 14:56:00,67.6,66.1,29.87,SSW,202,3.2,-999.0,95,-99.99,,,0.18,Acu-Link.com,2013-08-03 18:56:00,
2013-08-03 15:11:00,68.0,66.5,29.88,SW,225,4.2,-999.0,95,-99.99,,,0.18,Acu-Link.com,2013-08-03 19:11:00,
2013-08-03 15:26:00,67.6,65.8,29.87,WSW,247,4.7,-999.0,94,-99.99,,,0.18,Acu-Link.com,2013-08-03 19:26:00,
2013-08-03 15:41:00,68.2,66.1,29.87,SW,225,6.3,-999.0,93,-99.99,,,0.18,Acu-Link.com,2013-08-03 19:41:00,
2013-08-03 16:27:00,70.7,67.0,29.85,West,270,5.8,-999.0,88,-99.99,,,0.18,Acu-Link.com,2013-08-03 20:27:00,
2013-08-03 16:42:00,71.8,67.4,29.85,South,180,3.2,-999.0,86,-99.99,,,0.18,Acu-Link.com,2013-08-03 20:42:00,
2013-08-03 16:58:00,70.5,66.4,29.84,SSW,202,5.8,-999.0,87,-99.99,,,0.18,Acu-Link.com,2013-08-03 20:58:00,
2013-08-03 17:13:00,73.2,67.4,29.84,SW,225,4.2,-999.0,82,-99.99,,,0.18,Acu-Link.com,2013-08-03 21:13:00,
2013-08-03 17:29:00,71.8,66.7,29.85,WSW,247,3.7,-999.0,84,-99.99,,,0.18,Acu-Link.com,2013-08-03 21:29:00,
2013-08-03 17:43:00,73.8,67.2,29.85,SSW,202,2.7,-999.0,80,-99.99,,,0.18,Acu-Link.com,2013-08-03 21:43:00,
2013-08-03 17:59:00,72.3,66.5,29.85,SW,225,3.7,-999.0,82,-99.99,,,0.18,Acu-Link.com,2013-08-03 21:59:00,
2013-08-03 18:14:00,72.9,66.4,29.85,SW,225,3.2,-999.0,80,-99.99,,,0.18,Acu-Link.com,2013-08-03 22:14:00,
2013-08-03 18:29:00,72.1,66.6,29.85,SW,225,5.8,-999.0,83,-99.99,,,0.18,Acu-Link.com,2013-08-03 22:29:00,
2013-08-03 18:44:00,71.1,66.7,29.86,South,180,2.7,-999.0,86,-99.99,,,0.18,Acu-Link.com,2013-08-03 22:44:00,
2013-08-03 19:00:00,72.5,67.7,29.86,West,270,1.7,-999.0,85,-99.99,,,0.18,Acu-Link.com,2013-08-03 23:00:00,
2013-08-03 19:15:00,72.5,66.7,29.85,SSW,202,1.7,-999.0,82,-99.99,,,0.18,Acu-Link.com,2013-08-03 23:15:00,
2013-08-03 19:30:00,70.5,66.4,29.85,South,180,0.0,-999.0,87,-99.99,,,0.18,Acu-Link.com,2013-08-03 23:30:00,
2013-08-03 19:45:00,70.3,66.2,29.86,SW,225,3.2,-999.0,87,-99.99,,,0.18,Acu-Link.com,2013-08-03 23:45:00,
2013-08-03 20:01:00,69.4,66.0,29.87,WSW,247,3.7,-999.0,89,-99.99,,,0.18,Acu-Link.com,2013-08-04 00:01:00,
2013-08-03 20:16:00,68.9,66.2,29.87,WSW,247,1.1,-999.0,91,-99.99,,,0.18,Acu-Link.com,2013-08-04 00:16:00,
2013-08-03 20:31:00,68.0,65.9,29.87,East,90,2.7,-999.0,93,-99.99,,,0.18,Acu-Link.com,2013-08-04 00:31:00,
2013-08-03 20:46:00,67.6,65.8,29.87,West,270,2.7,-999.0,94,-99.99,,,0.18,Acu-Link.com,2013-08-04 00:46:00,
2013-08-03 21:02:00,67.1,65.6,29.88,WSW,247,1.7,-999.0,95,-99.99,,,0.18,Acu-Link.com,2013-08-04 01:02:00,
2013-08-03 21:17:00,66.6,65.4,29.87,South,180,0.0,-999.0,96,-99.99,,,0.18,Acu-Link.com,2013-08-04 01:17:00,
2013-08-03 21:32:00,66.0,65.1,29.88,SW,225,0.0,-999.0,97,-99.99,,,0.18,Acu-Link.com,2013-08-04 01:32:00,
2013-08-03 21:47:00,65.5,64.6,29.89,ESE,112,0.0,-999.0,97,-99.99,,,0.18,Acu-Link.com,2013-08-04 01:47:00,
2013-08-03 22:03:00,65.1,64.5,29.89,WSW,247,0.0,-999.0,98,-99.99,,,0.18,Acu-Link.com,2013-08-04 02:03:00,
2013-08-03 22:18:00,64.9,64.6,29.89,West,270,0.0,-999.0,99,-99.99,,,0.18,Acu-Link.com,2013-08-04 02:18:00,
2013-08-03 22:33:00,64.6,64.3,29.89,SSW,202,0.0,-999.0,99,-99.99,,,0.18,Acu-Link.com,2013-08-04 02:33:00,
2013-08-03 22:48:00,64.4,64.1,29.89,SE,135,0.0,-999.0,99,-99.99,,,0.18,Acu-Link.com,2013-08-04 02:48:00,
2013-08-03 23:04:00,64.2,63.9,29.90,SW,225,0.0,-999.0,99,-99.99,,,0.18,Acu-Link.com,2013-08-04 03:04:00,
2013-08-03 23:19:00,64.2,63.9,29.89,West,270,0.0,-999.0,99,-99.99,,,0.18,Acu-Link.com,2013-08-04 03:19:00,
2013-08-03 23:34:00,63.5,63.2,29.90,SW,225,0.0,-999.0,99,-99.99,,,0.18,Acu-Link.com,2013-08-04 03:34:00,
2013-08-03 23:49:00,63.5,63.2,29.89,WSW,247,0.0,-999.0,99,-99.99,,,0.18,Acu-Link.com,2013-08-04 03:49:00,